P/2020 T3 ( PanSTARRS )

Japanese version
Home page
Updated on October 27, 2020

---------------------------------------------------------------------

* Profile

Discovery Date October 10, 2020
Magnitude 21.3 mag
Discoverer Pan-STARRS 1 telescope (Haleakala)

* Orbital Elements

Epoch 2021 Jan. 26.0 TT = JDT 2459240.5                                         
T 2021 Jan. 20.46213 TT                                 Rudenko                 
q   1.4365727            (2000.0)            P               Q                  
n   0.14943039     Peri.  357.04234     +0.32415316     -0.93809452             
a   3.5170356      Node    74.01906     +0.87052779     +0.24528562             
e   0.5915388      Incl.    7.29553     +0.37027840     +0.24456828             
P   6.60                                                                        
From 61 observations 2020 Sept. 9-Oct. 22, mean residual 0".3.                  

* Magnitudes Graph

        m1 = 18.0 + 5 log d + 10.0 log r

---------------------------------------------------------------------

The orbital elements are published on M.P.E.C. 2020-U197.
The magnitudes graphs are made with Comet for Windows.

---------------------------------------------------------------------

Copyright(C) Seiichi Yoshida (comet@aerith.net). All rights reserved.